Location: Ku?niki
(51.4449°N, 17.8974°E)
Time: 22:03:35
(UTC+00:00)

EO-79 - Pass Details

Date: 06 July 2022
Orbit: 588 x 603 km, 98.0° (Epoch: 17 August)

Event Time Altitude Azimuth Distance (km) Brightness Sun altitude
Rises 00:09:07 0° 19° (NNE) 2,862 ? -14.0°
Reaches altitude 10° 00:11:24 10° 27° (NNE) 1,956 ? -13.9°
Maximum altitude 00:15:26 41° 98° (E) 883 ? -13.7°
Enters shadow 00:18:34 15° 164° (SSE) 1,618 ? -13.5°
